FW8207 Weather Reports


time (UTC)temp
F
wind
direction
speed
knots
gust
knots
rain 1hr
in
rain 24hr
in
rain mn
in
humidity
%
barometer
mb
20260505214346 48 0 3.5 5.2 0.00 0.15 0.15 95 1009.1
20260505213843 48 103 2.6 4.3 0.00 0.15 0.15 95 1008.7
20260505213341 48 358 7.8 8.7 0.00 0.15 0.15 95 1008.7
20260505212837 48 67 0.9 1.7 0.00 0.15 0.15 95 1008.3
20260505212334 49 75 0.9 1.7 0.00 0.15 0.15 95 1008.1
20260505211830 49 338 6.1 7.8 0.00 0.15 0.15 95 1008.2
20260505211328 48 115 0.9 0.9 0.00 0.15 0.15 96 1008.3
20260505210824 48 1 1.7 1.7 0.00 0.15 0.15 96 1008.5
20260505210321 48 347 1.7 2.6 0.00 0.15 0.15 97 1008.4
20260505205818 48 47 6.1 7.0 0.00 0.15 0.15 97 1008.3
20260505205316 49 70 6.1 7.8 0.00 0.15 0.15 97 1008.9
20260505204812 49 46 0.9 1.7 0.00 0.15 0.15 97 1008.7
20260505204311 50 58 2.6 4.3 0.00 0.15 0.15 97 1008.7
20260505203808 50 78 5.2 7.0 0.00 0.15 0.15 97 1008.4
20260505203304 50 347 2.6 5.2 0.00 0.15 0.15 97 1008.3
20260505202800 50 24 3.5 4.3 0.00 0.15 0.15 97 1008.2
20260505202256 50 313 3.5 5.2 0.00 0.15 0.15 96 1008.0
20260505201753 51 64 0.9 0.9 0.00 0.15 0.15 96 1008.0
20260505201251 51 71 2.6 2.6 0.00 0.15 0.15 96 1007.8
20260505200749 50 111 2.6 2.6 0.00 0.15 0.15 96 1007.8
20260505200246 50 339 6.1 7.8 0.00 0.15 0.15 96 1008.3
20260505195741 50 47 2.6 2.6 0.00 0.15 0.15 95 1008.2
20260505195239 50 97 0.9 0.9 0.07 0.15 0.15 95 1008.3
20260505194736 50 57 3.5 4.3 0.07 0.15 0.15 95 1008.5
20260505194232 51 69 5.2 7.0 0.00 0.14 0.14 94 1009.0
20260505193728 51 97 2.6 4.3 0.00 0.14 0.14 94 1008.7
20260505193226 52 47 3.5 4.3 0.00 0.14 0.14 93 1008.5
20260505192724 52 18 1.7 1.7 0.00 0.14 0.14 93 1008.3
20260505192221 53 51 1.7 2.6 0.00 0.14 0.14 93 1008.2
20260505191720 53 106 0.9 0.9 0.00 0.14 0.14 92 1007.7
20260505191218 53 88 1.7 2.6 0.00 0.14 0.14 92 1007.9
20260505190714 53 15 3.5 4.3 0.00 0.14 0.14 91 1007.9
20260505190213 53 49 3.5 5.2 0.00 0.14 0.14 90 1008.2
20260505185710 53 67 1.7 2.6 0.00 0.14 0.14 89 1008.4
20260505185207 53 359 2.6 4.3 0.00 0.14 0.14 88 1008.4
20260505184703 53 73 2.6 2.6 0.00 0.14 0.14 88 1008.2
20260505184200 54 12 2.6 4.3 0.00 0.14 0.14 89 1008.1
20260505183657 54 354 1.7 4.3 0.00 0.14 0.14 89 1008.1
20260505183155 54 51 2.6 6.1 0.00 0.14 0.14 88 1008.1
20260505182650 54 91 1.7 2.6 0.00 0.14 0.14 88 1008.2
20260505182148 55 358 5.2 6.1 0.00 0.14 0.14 87 1008.1
20260505181644 55 17 4.3 5.2 0.00 0.14 0.14 87 1007.8
20260505181142 55 98 1.7 1.7 0.00 0.14 0.14 88 1008.0
20260505180638 55 335 4.3 6.1 0.00 0.14 0.14 88 1007.9
20260505180135 56 38 2.6 2.6 0.00 0.14 0.14 87 1007.9
20260505175631 55 72 1.7 2.6 0.00 0.14 0.14 88 1007.7
20260505175128 55 74 2.6 5.2 0.00 0.14 0.14 87 1007.8
20260505174624 56 359 2.6 4.3 0.00 0.14 0.14 86 1007.9
20260505174120 56 64 2.6 2.6 0.00 0.14 0.14 86 1007.9
20260505173617 56 74 0.9 0.9 0.00 0.14 0.14 86 1007.8
20260505173114 56 104 0.9 0.9 0.00 0.14 0.14 87 1008.0
20260505172612 56 52 2.6 4.3 0.00 0.14 0.14 86 1007.9
20260505172108 56 352 4.3 9.6 0.00 0.14 0.14 86 1007.9
20260505171603 56 5 3.5 6.1 0.00 0.14 0.14 87 1007.9
20260505171100 55 73 6.1 8.7 0.00 0.14 0.14 87 1007.9
20260505170557 55 105 3.5 4.3 0.00 0.14 0.14 88 1007.9
20260505170053 55 334 4.3 5.2 0.00 0.14 0.14 87 1008.1
20260505165548 56 13 3.5 5.2 0.00 0.14 0.14 87 1007.9
20260505165045 56 34 2.6 2.6 0.00 0.14 0.14 87 1007.9
20260505164540 57 40 4.3 7.0 0.00 0.14 0.14 87 1007.9
20260505164038 57 20 3.5 4.3 0.00 0.14 0.14 88 1007.9
20260505163537 57 338 2.6 5.2 0.00 0.14 0.14 88 1007.8
20260505163033 58 66 4.3 6.1 0.00 0.14 0.14 88 1008.0
20260505162521 58 90 3.5 5.2 0.00 0.14 0.14 88 1008.2
20260505162018 59 171 2.6 5.2 0.00 0.14 0.14 87 1008.0
20260505161514 59 16 5.2 6.1 0.00 0.14 0.14 87 1008.0
20260505161012 60 85 0.9 1.7 0.00 0.14 0.14 86 1008.0
20260505160510 60 332 5.2 6.1 0.00 0.14 0.14 85 1008.1
20260505152946 59 72 6.1 7.0 0.00 0.14 0.14 90 1006.8
20260505152443 58 113 0.9 0.9 0.00 0.14 0.14 91 1006.9
20260505151938 58 3 4.3 6.1 0.00 0.14 0.14 91 1007.2
20260505151433 58 18 2.6 2.6 0.00 0.14 0.14 93 1006.8
20260505150931 58 336 3.5 7.0 0.00 0.14 0.14 92 1007.3
20260505150428 58 62 6.1 7.0 0.00 0.14 0.14 92 1007.3
20260505140358 57 65 2.6 2.6 0.00 0.14 0.14 99 1007.3
20260505124811 56 117 0.9 1.7 0.00 0.14 0.14 99 1006.6
20260505124308 57 93 1.7 2.6 0.00 0.14 0.14 99 1006.8
20260505123804 57 151 0.9 1.7 0.00 0.14 0.14 99 1006.7
20260505123301 58 107 0.0 0.9 0.00 0.14 0.14 99 1006.8
20260505122757 58 125 0.0 0.0 0.00 0.14 0.14 99 1006.3
20260505122255 58 60 2.6 5.2 0.00 0.14 0.14 99 1006.6
20260505121751 58 98 0.9 0.9 0.00 0.14 0.14 99 1006.6
20260505121248 58 114 1.7 1.7 0.00 0.14 0.14 99 1006.6
20260505120744 58 109 0.0 0.0 0.00 0.14 0.14 99 1006.8
20260505120240 58 25 2.6 4.3 0.00 0.14 0.14 99 1006.4
20260505115739 58 100 1.7 1.7 0.00 0.14 0.14 99 1006.5
20260505115237 58 108 0.0 0.0 0.00 0.14 0.14 99 1006.8
20260505114734 58 181 0.9 0.9 0.00 0.14 0.14 99 1006.6
20260505114230 58 70 1.7 2.6 0.00 0.14 0.14 99 1006.1
20260505113727 58 128 0.0 0.0 0.00 0.14 0.14 99 1005.5
20260505113223 58 119 0.0 0.9 0.00 0.14 0.14 99 1005.9
20260505112720 57 118 0.0 0.0 0.00 0.14 0.14 99 1005.8
20260505112218 57 82 2.6 2.6 0.00 0.14 0.14 99 1006.1
20260505111717 57 113 0.0 0.0 0.00 0.14 0.14 99 1006.7
20260505111214 57 154 0.0 0.9 0.00 0.14 0.14 99 1006.4
20260505110709 57 137 0.0 0.0 0.00 0.14 0.14 99 1006.2
20260505110207 58 136 0.0 0.0 0.00 0.14 0.14 99 1006.2
20260505102142 58 152 0.9 0.9 0.00 0.13 0.13 99 1005.4
20260505101641 58 68 0.9 1.7 0.00 0.13 0.13 99 1005.4
20260505101137 58 130 0.0 0.9 0.00 0.13 0.13 98 1005.3
20260505100633 59 98 0.9 0.9 0.00 0.13 0.13 98 1004.8
20260505100130 59 118 0.0 0.0 0.00 0.13 0.13 97 1004.9
20260505095626 59 145 0.9 0.9 0.00 0.13 0.13 97 1004.6
20260505095124 59 115 2.6 2.6 0.00 0.13 0.13 96 1004.7
20260505094620 59 157 3.5 4.3 0.00 0.13 0.13 96 1004.6
20260505094116 59 125 3.5 5.2 0.00 0.13 0.13 95 1004.3
20260505093613 59 164 3.5 4.3 0.00 0.13 0.13 95 1004.6
20260505093110 59 150 6.1 8.7 0.07 0.13 0.13 96 1004.5
20260505092607 59 145 6.1 7.0 0.07 0.13 0.13 97 1005.2
20260505092106 59 139 1.7 1.7 0.00 0.12 0.12 97 1005.6
20260505091602 59 143 1.7 1.7 0.07 0.12 0.12 97 1005.8
20260505091100 59 144 0.9 0.9 0.12 0.12 0.12 96 1005.9
20260505090558 60 118 0.0 0.0 0.12 0.11 0.11 96 1006.2
20260505090056 60 327 2.6 4.3 0.12 0.10 0.10 96 1006.2
20260505085553 60 191 0.9 0.9 0.19 0.10 0.10 95 1006.4
20260505085051 60 224 2.6 4.3 0.19 0.08 0.08 95 1006.4
20260505084549 60 139 3.5 4.3 0.17 0.07 0.07 94 1006.5
20260505084047 60 190 1.7 1.7 0.12 0.05 0.05 93 1005.9
20260505083544 61 328 3.5 4.3 0.12 0.04 0.04 93 1006.3
20260505083040 61 233 6.1 7.0 0.12 0.03 0.03 92 1005.9
20260505082536 61 264 4.3 6.1 0.07 0.02 0.02 91 1005.9
20260505082033 62 257 4.3 7.0 0.05 0.01 0.01 89 1005.9
20260505081529 62 207 6.1 7.0 0.05 0.01 0.01 87 1006.3
20260505081027 62 203 3.5 6.1 0.00 0.00 0.00 85 1006.2
20260505080523 63 208 1.7 1.7 0.00 0.00 0.00 83 1005.7
20260505080020 63 176 0.9 0.9 0.00 0.00 0.00 81 1005.7
20260505075516 63 127 0.0 0.9 0.00 0.00 0.00 80 1005.8
20260505075013 63 220 1.7 1.7 0.00 0.00 0.00 79 1005.7
20260505074510 63 179 2.6 4.3 0.00 0.00 0.00 79 1005.4
20260505074007 64 203 2.6 2.6 0.00 0.00 0.00 79 1005.5
20260505073504 63 174 2.6 2.6 0.00 0.00 0.00 78 1005.5
20260505073002 64 148 1.7 1.7 0.00 0.00 0.00 79 1005.5
20260505072458 63 194 2.6 2.6 0.00 0.00 0.00 78 1005.4
20260505071954 64 160 0.9 2.6 0.00 0.00 0.00 78 1005.5
20260505071450 64 194 4.3 5.2 0.00 0.00 0.00 78 1005.4
20260505070948 64 161 3.5 4.3 0.00 0.00 0.00 78 1005.4
20260505070444 64 197 4.3 5.2 0.00 0.00 0.00 78 1005.5
20260505065940 64 197 5.2 7.0 0.00 0.00 0.00 78 1005.5
20260505065437 63 134 3.5 4.3 0.00 0.00 0.00 78 1005.5
20260505064933 63 183 3.5 4.3 0.00 0.00 0.00 78 1005.6
20260505064431 64 154 4.3 6.1 0.00 0.00 0.00 78 1005.9
20260505063929 63 176 6.1 7.0 0.00 0.00 0.00 78 1006.1
20260505063425 63 158 2.6 2.6 0.00 0.00 0.00 78 1006.4
20260505062922 63 179 3.5 5.2 0.00 0.00 0.00 78 1006.3
20260505062419 63 181 3.5 5.2 0.00 0.00 0.00 78 1006.4
20260505061915 63 196 1.7 2.6 0.00 0.00 0.00 79 1006.4
20260505061414 63 167 2.6 5.2 0.00 0.00 0.00 78 1006.4
20260505060911 63 189 6.1 7.8 0.00 0.00 0.00 78 1006.4
20260505060408 63 174 4.3 5.2 0.00 0.00 0.00 78 1006.3
20260505055904 63 169 4.3 5.2 0.00 0.00 0.00 78 1006.2
20260505055400 63 160 4.3 6.1 0.00 0.00 0.00 78 1006.2
20260505054857 64 192 2.6 5.2 0.00 0.00 0.00 77 1006.3
20260505054354 63 185 3.5 4.3 0.00 0.00 0.00 77 1006.2
20260505053853 63 192 3.5 5.2 0.00 0.00 0.00 78 1006.4
20260505053350 63 143 4.3 5.2 0.00 0.00 0.00 78 1006.2
20260505052846 64 192 5.2 6.1 0.00 0.00 0.00 77 1006.2
20260505052343 64 170 4.3 4.3 0.00 0.00 0.00 78 1006.5
20260505051840 63 151 3.5 4.3 0.00 0.00 0.00 78 1006.4
20260505051337 63 174 3.5 5.2 0.00 0.00 0.00 78 1006.6
20260505050835 63 177 2.6 4.3 0.00 0.00 0.00 78 1006.5
20260505050334 63 175 3.5 5.2 0.00 0.00 0.00 78 1006.4
20260505041301 64 183 2.6 2.6 0.00 0.00 0.00 77 1007.1
20260505040758 64 145 1.7 1.7 0.00 0.00 0.00 76 1007.3
20260505040255 64 175 2.6 2.6 0.00 0.00 0.00 75 1007.2
20260505035752 64 168 1.7 1.7 0.00 0.00 0.00 76 1007.4
20260505035248 65 177 2.6 2.6 0.00 0.00 0.00 75 1007.3
20260505034745 65 180 1.7 1.7 0.00 0.00 0.00 75 1007.5
20260505034242 65 180 1.7 2.6 0.00 0.00 0.00 75 1007.5
20260505033738 65 177 1.7 2.6 0.00 0.00 0.00 75 1007.3
20260505033236 65 166 2.6 2.6 0.00 0.00 0.00 75 1007.4
20260505032734 65 177 2.6 2.6 0.00 0.00 0.00 74 1007.6
20260505032230 65 164 1.7 1.7 0.00 0.00 0.00 74 1007.5
20260505031727 65 183 1.7 1.7 0.00 0.00 0.00 74 1007.6
20260505031223 65 167 2.6 2.6 0.00 0.00 0.00 74 1007.5
20260505030721 66 193 2.6 2.6 0.00 0.00 0.00 74 1007.7
20260505030217 66 179 3.5 4.3 0.00 0.00 0.00 73 1007.5
20260505025713 66 181 2.6 4.3 0.00 0.00 0.00 72 1007.4
20260505025211 66 155 3.5 4.3 0.00 0.00 0.00 73 1007.4
20260505024709 66 190 3.5 5.2 0.00 0.00 0.00 72 1007.2
20260505024206 66 176 2.6 4.3 0.00 0.00 0.00 72 1007.3
20260505023703 66 198 2.6 4.3 0.00 0.00 0.00 72 1007.1
20260505023200 66 165 1.7 1.7 0.00 0.00 0.00 72 1007.3
20260505022658 66 141 0.9 0.9 0.00 0.00 0.00 71 1007.0
20260505022154 66 147 1.7 1.7 0.00 0.00 0.00 70 1007.1
20260505021651 66 162 1.7 1.7 0.00 0.00 0.00 70 1006.8
20260505021148 67 165 1.7 1.7 0.00 0.00 0.00 70 1006.7
20260505020644 67 166 3.5 4.3 0.00 0.00 0.00 70 1006.8
20260505020140 67 169 2.6 2.6 0.00 0.00 0.00 69 1006.5
20260505015637 68 148 0.9 1.7 0.00 0.00 0.00 68 1006.4
20260505015133 68 157 2.6 2.6 0.00 0.00 0.00 67 1006.5
20260505014630 68 152 1.7 2.6 0.00 0.00 0.00 67 1006.5
20260505014127 68 158 1.7 1.7 0.00 0.00 0.00 67 1006.3
20260505013625 69 148 0.9 1.7 0.00 0.00 0.00 66 1006.2
20260505013122 69 135 1.7 1.7 0.00 0.00 0.00 66 1006.1
20260505012620 69 193 1.7 1.7 0.00 0.00 0.00 65 1006.1
20260505012117 69 162 1.7 1.7 0.00 0.00 0.00 65 1006.1
20260505011612 70 167 0.9 1.7 0.00 0.00 0.00 65 1005.9
20260505011110 70 155 0.9 0.9 0.00 0.00 0.00 64 1005.8
20260505010605 70 172 4.3 5.2 0.00 0.00 0.00 63 1005.8
20260505005558 70 204 2.6 4.3 0.00 0.00 0.00 64 1005.6
20260505005055 70 164 1.7 1.7 0.00 0.00 0.00 63 1005.7
20260505004552 71 220 2.6 4.3 0.00 0.00 0.00 62 1005.7
20260505004049 71 207 2.6 2.6 0.00 0.00 0.00 61 1005.5
20260505003546 72 149 0.9 1.7 0.00 0.00 0.00 61 1005.6
20260505003043 72 183 2.6 2.6 0.00 0.00 0.00 59 1005.6
20260505002538 73 212 3.5 4.3 0.00 0.00 0.00 58 1005.5
20260505002037 73 149 3.5 4.3 0.00 0.00 0.00 57 1005.5
20260505001534 74 198 4.3 6.1 0.00 0.00 0.00 56 1005.5
20260505001031 74 209 4.3 6.1 0.00 0.00 0.00 56 1005.7
20260505000529 74 207 3.5 5.2 0.00 0.00 0.00 56 1005.5
20260505000026 74 186 3.5 5.2 0.00 0.00 0.00 55 1005.3
20260504235523 75 160 4.3 6.1 0.00 0.00 0.00 55 1005.6
20260504235019 75 177 7.0 8.7 0.00 0.00 0.00 54 1005.3
20260504234516 75 120 5.2 6.1 0.00 0.00 0.00 54 1005.3
20260504234013 75 209 7.0 8.7 0.00 0.00 0.00 53 1005.5
20260504233508 76 193 5.2 6.1 0.00 0.00 0.00 54 1005.4
20260504233006 76 181 7.8 8.7 0.00 0.00 0.00 53 1005.6
20260504232503 76 211 9.6 12.2 0.00 0.00 0.00 52 1005.4
20260504232001 77 156 8.7 12.2 0.00 0.00 0.00 52 1005.5
20260504231456 77 199 7.0 7.8 0.00 0.00 0.00 52 1005.4
20260504230953 77 223 6.1 7.0 0.00 0.00 0.00 49 1005.5
20260504230449 77 180 9.6 12.2 0.00 0.00 0.00 49 1005.5
20260504225949 77 147 7.0 8.7 0.00 0.00 0.00 50 1005.5
20260504225445 77 226 11.3 13.9 0.00 0.00 0.00 49 1005.6
20260504224942 78 222 4.3 6.1 0.00 0.00 0.00 50 1005.8
20260504224438 78 191 5.2 7.0 0.00 0.00 0.00 50 1005.6
20260504223936 78 209 4.3 8.7 0.00 0.00 0.00 50 1005.6
20260504223431 78 193 3.5 5.2 0.00 0.00 0.00 51 1005.5
20260504222927 78 218 10.4 13.9 0.00 0.00 0.00 49 1005.6
20260504222425 78 209 10.4 13.9 0.00 0.00 0.00 49 1005.8
20260504221923 78 231 3.5 5.2 0.00 0.00 0.00 50 1005.5
20260504221419 78 189 3.5 4.3 0.00 0.00 0.00 50 1005.8
20260504220916 78 237 6.1 8.7 0.00 0.00 0.00 51 1005.8
20260504220413 78 197 3.5 4.3 0.00 0.00 0.00 53 1005.8
20260504215910 78 205 5.2 6.1 0.00 0.00 0.00 51 1005.8
20260504215407 78 187 7.8 11.3 0.00 0.00 0.00 50 1005.8
20260504214903 78 200 7.8 12.2 0.00 0.00 0.00 51 1005.6